| time (UTC) | temp C | wind direction | speed KPH | gust KPH | rain 1hr cm | rain 24hr cm | rain mn cm | humidity % | barometer mb |
| 20260906195141 | 27 | 206 | 0.0 | 0.0 | 0.00 | 0.00 | 0.00 | 78 | |
| 20260906194141 | 27 | 206 | 0.0 | 0.0 | 0.00 | 0.00 | 0.00 | 78 | |
| 20260906193140 | 27 | 206 | 0.0 | 0.0 | 0.00 | 0.00 | 0.00 | 79 | |
| 20260906192140 | 27 | 206 | 0.0 | 0.0 | 0.00 | 0.00 | 0.00 | 79 | |
| 20260906191139 | 27 | 234 | 0.0 | 0.0 | 0.00 | 0.00 | 0.00 | 79 | |
| 20260906190138 | 27 | 207 | 0.0 | 0.0 | 0.00 | 0.00 | 0.00 | 79 | |
| 20260906185138 | 27 | 126 | 0.0 | 0.0 | 0.00 | 0.00 | 0.00 | 79 | |
| 20260906184138 | 27 | 211 | 0.0 | 0.0 | 0.00 | 0.00 | 0.00 | 80 | |
| 20260906183138 | 27 | 188 | 0.0 | 0.0 | 0.00 | 0.00 | 0.00 | 80 | |
| 20260906182637 | 27 | 212 | 3.2 | 3.2 | 0.00 | 0.00 | 0.00 | 80 | |
| 20260906181636 | 27 | 214 | 1.6 | 3.2 | 0.00 | 0.00 | 0.00 | 81 | |
| 20260906180636 | 27 | 219 | 0.0 | 0.0 | 0.00 | 0.00 | 0.00 | 81 | |
| 20260906175635 | 27 | 216 | 1.6 | 1.6 | 0.00 | 0.00 | 0.00 | 81 | |
| 20260906174634 | 26 | 138 | 0.0 | 0.0 | 0.00 | 0.00 | 0.00 | 82 | |
| 20260906173635 | 26 | 194 | 0.0 | 0.0 | 0.00 | 0.00 | 0.00 | 83 | |
| 20260906172635 | 26 | 231 | 0.0 | 1.6 | 0.00 | 0.00 | 0.00 | 83 | |
| 20260906171634 | 25 | 241 | 0.0 | 0.0 | 0.00 | 0.00 | 0.00 | 84 | |
| 20260906170634 | 25 | 226 | 0.0 | 0.0 | 0.00 | 0.00 | 0.00 | 84 | |
| 20260906165623 | 25 | 254 | 0.0 | 0.0 | 0.00 | 0.00 | 0.00 | 84 | |
| 20260906164613 | 25 | 154 | 0.0 | 1.6 | 0.00 | 0.00 | 0.00 | 85 | |
| 20260906163602 | 24 | 317 | 0.0 | 0.0 | 0.00 | 0.00 | 0.00 | 85 | |
| 20260906162553 | 24 | 240 | 0.0 | 1.6 | 0.00 | 0.00 | 0.00 | 85 | |
| 20260906162042 | 24 | 346 | 0.0 | 0.0 | 0.00 | 0.00 | 0.00 | 86 | |
| 20260906161041 | 23 | 224 | 0.0 | 0.0 | 0.00 | 0.00 | 0.00 | 86 | |
| 20260906160540 | 23 | 261 | 0.0 | 1.6 | 0.00 | 0.00 | 0.00 | 86 | |
| 20260906155530 | 23 | 214 | 0.0 | 1.6 | 0.00 | 0.00 | 0.00 | ||
| 20260906154529 | 22 | 253 | 0.0 | 0.0 | 0.00 | 0.00 | 0.00 | ||
| 20260906153519 | 22 | 242 | 0.0 | 0.0 | 0.00 | 0.00 | 0.00 | ||
| 20260906152509 | 22 | 185 | 0.0 | 0.0 | 0.00 | 0.00 | 0.00 | 87 | |
| 20260906151509 | 21 | 118 | 0.0 | 0.0 | 0.00 | 0.00 | 0.00 | 87 | |
| 20260906150509 | 21 | 359 | 0.0 | 0.0 | 0.00 | 0.00 | 0.00 | 87 | |
| 20260906145509 | 21 | 89 | 0.0 | 0.0 | 0.00 | 0.00 | 0.00 | 87 | |
| 20260906144508 | 21 | 174 | 0.0 | 0.0 | 0.00 | 0.00 | 0.00 | 87 | |
| 20260906143507 | 21 | 41 | 0.0 | 0.0 | 0.00 | 0.00 | 0.00 | 87 | |
| 20260906142505 | 20 | 54 | 0.0 | 1.6 | 0.00 | 0.00 | 0.00 | 88 | |
| 20260906141505 | 20 | 112 | 0.0 | 0.0 | 0.00 | 0.00 | 0.00 | 88 | |
| 20260906140505 | 20 | 101 | 0.0 | 0.0 | 0.00 | 0.00 | 0.00 | 88 | |
| 20260906135505 | 20 | 58 | 0.0 | 0.0 | 0.00 | 0.00 | 0.00 | 88 | |
| 20260906134504 | 20 | 98 | 4.8 | 6.4 | 0.00 | 0.00 | 0.00 | 88 | |
| 20260906134002 | 20 | 79 | 0.0 | 0.0 | 0.00 | 0.00 | 0.00 | 88 | |
| 20260906133001 | 20 | 52 | 0.0 | 0.0 | 0.00 | 0.00 | 0.00 | 88 | |
| 20260906132000 | 20 | 64 | 0.0 | 0.0 | 0.00 | 0.00 | 0.00 | 87 | |
| 20260906120859 | 20 | 27 | 0.0 | 0.0 | 0.00 | 0.00 | 0.00 | ||
| 20260906115900 | 20 | 29 | 0.0 | 0.0 | 0.00 | 0.00 | 0.00 | ||
| 20260906115359 | 20 | 187 | 0.0 | 0.0 | 0.00 | 0.00 | 0.00 | ||
| 20260906114350 | 19 | 17 | 0.0 | 0.0 | 0.00 | 0.00 | 0.00 | ||
| 20260906113845 | 19 | 23 | 0.0 | 0.0 | 0.00 | 0.00 | 0.00 | ||
| 20260906112842 | 19 | 82 | 0.0 | 0.0 | 0.00 | 0.00 | 0.00 | ||
| 20260906111840 | 19 | 19 | 0.0 | 0.0 | 0.00 | 0.00 | 0.00 | ||
| 20260906110839 | 19 | 62 | 0.0 | 0.0 | 0.00 | 0.00 | 0.00 | ||
| 20260906105838 | 19 | 63 | 0.0 | 0.0 | 0.00 | 0.00 | 0.00 | 86 | |
| 20260906104838 | 19 | 68 | 0.0 | 0.0 | 0.00 | 0.00 | 0.00 | 86 | |
| 20260906104337 | 19 | 63 | 0.0 | 0.0 | 0.00 | 0.00 | 0.00 | 86 | |
| 20260906103825 | 19 | 64 | 0.0 | 0.0 | 0.00 | 0.00 | 0.00 | 86 | |
| 20260906103325 | 19 | 40 | 0.0 | 0.0 | 0.00 | 0.00 | 0.00 | 86 | |
| 20260906102816 | 19 | 29 | 0.0 | 0.0 | 0.00 | 0.00 | 0.00 | 86 | |
| 20260906101815 | 19 | 57 | 0.0 | 0.0 | 0.00 | 0.00 | 0.00 | 86 | |
| 20260906100814 | 19 | 56 | 0.0 | 0.0 | 0.00 | 0.00 | 0.00 | 86 | |
| 20260906100313 | 19 | 53 | 0.0 | 0.0 | 0.00 | 0.00 | 0.00 | 85 | |
| 20260906095804 | 19 | 112 | 0.0 | 0.0 | 0.00 | 0.00 | 0.00 | 85 | |
| 20260906095306 | 19 | 61 | 0.0 | 0.0 | 0.00 | 0.00 | 0.00 | 85 | |
| 20260906094253 | 19 | 98 | 0.0 | 0.0 | 0.00 | 0.00 | 0.00 | 85 | |
| 20260906093252 | 20 | 102 | 0.0 | 0.0 | 0.00 | 0.00 | 0.00 | 85 | |
| 20260906092251 | 20 | 105 | 0.0 | 0.0 | 0.00 | 0.00 | 0.00 | 86 | |
| 20260906091240 | 20 | 125 | 0.0 | 0.0 | 0.00 | 0.00 | 0.00 | 84 | |
| 20260906090732 | 20 | 125 | 0.0 | 0.0 | 0.00 | 0.00 | 0.00 | 84 | |
| 20260906085729 | 20 | 68 | 0.0 | 0.0 | 0.00 | 0.00 | 0.00 | 84 | |
| 20260906085229 | 20 | 5 | 0.0 | 0.0 | 0.00 | 0.00 | 0.00 | 84 | |
| 20260906084719 | 20 | 81 | 0.0 | 0.0 | 0.00 | 0.00 | 0.00 | 83 | |
| 20260906084217 | 20 | 36 | 0.0 | 0.0 | 0.00 | 0.00 | 0.00 | 83 | |
| 20260906083206 | 20 | 63 | 0.0 | 0.0 | 0.00 | 0.00 | 0.00 | 83 | |
| 20260906082156 | 20 | 8 | 0.0 | 0.0 | 0.00 | 0.00 | 0.00 | 83 | |
| 20260906081150 | -17 | 0.0 | 0.0 | 0.00 | 0.00 | 0.00 | |||
| 20260906080147 | 20 | 123 | 0.0 | 0.0 | 0.00 | 0.00 | 0.00 | 83 | |
| 20260906075147 | 20 | 149 | 0.0 | 0.0 | 0.00 | 0.00 | 0.00 | 82 | |
| 20260906074147 | 20 | 88 | 0.0 | 0.0 | 0.00 | 0.00 | 0.00 | 82 | |
| 20260906073147 | 20 | 20 | 0.0 | 0.0 | 0.00 | 0.00 | 0.00 | 82 | |
| 20260906072146 | 20 | 61 | 0.0 | 0.0 | 0.00 | 0.00 | 0.00 | 82 | |
| 20260906071145 | 21 | 72 | 0.0 | 0.0 | 0.00 | 0.00 | 0.00 | 82 | |
| 20260906070142 | 21 | 82 | 0.0 | 0.0 | 0.00 | 0.00 | 0.00 | 81 | |
| 20260906065142 | 21 | 101 | 0.0 | 0.0 | 0.00 | 0.00 | 0.00 | 80 | |
| 20260906064141 | 21 | 59 | 0.0 | 0.0 | 0.00 | 0.00 | 0.00 | 81 | |
| 20260906063141 | 21 | 34 | 0.0 | 0.0 | 0.00 | 0.00 | 0.00 | ||
| 20260906062140 | 21 | 98 | 0.0 | 0.0 | 0.00 | 0.00 | 0.00 | ||
| 20260906061138 | 21 | 78 | 0.0 | 0.0 | 0.00 | 0.00 | 0.00 | 79 | |
| 20260906060138 | 21 | 88 | 0.0 | 0.0 | 0.00 | 0.00 | 0.00 | 79 | |
| 20260906055138 | 21 | 23 | 0.0 | 0.0 | 0.00 | 0.00 | 0.00 | 79 | |
| 20260906054637 | 21 | 23 | 0.0 | 0.0 | 0.00 | 0.00 | 0.00 | 79 | |
| 20260906053635 | 21 | 22 | 0.0 | 0.0 | 0.00 | 0.00 | 0.00 | 79 | |
| 20260906052635 | 21 | 103 | 0.0 | 0.0 | 0.00 | 0.00 | 0.00 | 79 | |
| 20260906051634 | 21 | 47 | 0.0 | 0.0 | 0.00 | 0.00 | 0.00 | 79 | |
| 20260906050633 | 22 | 52 | 0.0 | 0.0 | 0.00 | 0.00 | 0.00 | 78 | |
| 20260906045631 | 22 | 10 | 0.0 | 0.0 | 0.00 | 0.00 | 0.00 | 78 | |
| 20260906044629 | 22 | 55 | 0.0 | 0.0 | 0.00 | 0.00 | 0.00 | 78 | |
| 20260906043627 | 22 | 38 | 0.0 | 0.0 | 0.00 | 0.00 | 0.00 | 78 | |
| 20260906042626 | 22 | 92 | 0.0 | 0.0 | 0.00 | 0.00 | 0.00 | 78 | |
| 20260906041625 | 22 | 73 | 0.0 | 0.0 | 0.00 | 0.00 | 0.00 | 77 | |
| 20260906040625 | 22 | 72 | 0.0 | 0.0 | 0.00 | 0.00 | 0.00 | 77 | |
| 20260906035626 | 22 | 36 | 0.0 | 0.0 | 0.00 | 0.00 | 0.00 | 77 | |
| 20260906034625 | 22 | 94 | 0.0 | 0.0 | 0.00 | 0.00 | 0.00 | 77 | |
| 20260906033625 | 22 | 77 | 0.0 | 0.0 | 0.00 | 0.00 | 0.00 | ||
| 20260906032622 | 23 | 97 | 0.0 | 0.0 | 0.00 | 0.00 | 0.00 | 76 | |
| 20260906031622 | 23 | 119 | 0.0 | 1.6 | 0.00 | 0.00 | 0.00 | 76 | |
| 20260906030623 | 23 | 65 | 0.0 | 0.0 | 0.00 | 0.00 | 0.00 | 76 | |
| 20260906025622 | 23 | 64 | 0.0 | 0.0 | 0.00 | 0.00 | 0.00 | 76 | |
| 20260906024621 | 23 | 68 | 0.0 | 0.0 | 0.00 | 0.00 | 0.00 | 76 | |
| 20260906023621 | 23 | 66 | 0.0 | 0.0 | 0.00 | 0.00 | 0.00 | 76 | |
| 20260906022620 | 23 | 106 | 0.0 | 0.0 | 0.00 | 0.00 | 0.00 | 75 | |
| 20260906022119 | 23 | 85 | 0.0 | 0.0 | 0.00 | 0.00 | 0.00 | 75 | |
| 20260906021117 | 23 | 119 | 0.0 | 0.0 | 0.00 | 0.00 | 0.00 | 75 | |
| 20260906020118 | 23 | 63 | 0.0 | 0.0 | 0.00 | 0.00 | 0.00 | 75 | |
| 20260906015117 | 23 | 115 | 0.0 | 0.0 | 0.00 | 0.00 | 0.00 | 74 | |
| 20260906014116 | 23 | 84 | 0.0 | 0.0 | 0.00 | 0.00 | 0.00 | 74 | |
| 20260906013115 | 24 | 90 | 0.0 | 0.0 | 0.00 | 0.00 | 0.00 | 74 | |
| 20260906012114 | 24 | 70 | 0.0 | 0.0 | 0.00 | 0.00 | 0.00 | 74 | |
| 20260906011115 | 24 | 123 | 0.0 | 0.0 | 0.00 | 0.00 | 0.00 | 73 | |
| 20260906010114 | 25 | 74 | 0.0 | 0.0 | 0.00 | 0.00 | 0.00 | 72 | |
| 20260906005115 | 25 | 74 | 0.0 | 0.0 | 0.00 | 0.00 | 0.00 | 71 | |
| 20260906004112 | 25 | 74 | 0.0 | 0.0 | 0.00 | 0.00 | 0.00 | 71 | |
| 20260906003111 | 25 | 72 | 0.0 | 0.0 | 0.00 | 0.00 | 0.00 | 71 | |
| 20260906002110 | 25 | 126 | 0.0 | 0.0 | 0.00 | 0.00 | 0.00 | 70 | |
| 20260906001109 | 26 | 55 | 0.0 | 0.0 | 0.00 | 0.00 | 0.00 | 69 | |
| 20260906000110 | 26 | 80 | 0.0 | 0.0 | 0.00 | 0.00 | 0.00 | 69 | |
| 20260905235108 | 26 | 6 | 0.0 | 0.0 | 0.00 | 0.00 | 0.00 | 69 | |
| 20260905234108 | 26 | 96 | 0.0 | 0.0 | 0.00 | 0.00 | 0.00 | 69 | |
| 20260905233109 | 26 | 44 | 0.0 | 0.0 | 0.00 | 0.00 | 0.00 | 69 | |
| 20260905232108 | 26 | 78 | 1.6 | 1.6 | 0.00 | 0.00 | 0.00 | 68 | |
| 20260905231106 | 26 | 3 | 0.0 | 0.0 | 0.00 | 0.00 | 0.00 | 68 | |
| 20260905230107 | 26 | 59 | 0.0 | 0.0 | 0.00 | 0.00 | 0.00 | 68 | |
| 20260905225606 | 26 | 74 | 3.2 | 6.4 | 0.00 | 0.00 | 0.00 | 68 | |
| 20260905224605 | 26 | 140 | 0.0 | 0.0 | 0.00 | 0.00 | 0.00 | 68 | |
| 20260905224102 | 27 | 98 | 3.2 | 6.4 | 0.00 | 0.00 | 0.00 | 67 | |
| 20260905223102 | 27 | 91 | 0.0 | 0.0 | 0.00 | 0.00 | 0.00 | 68 | |
| 20260905222101 | 27 | 73 | 0.0 | 0.0 | 0.00 | 0.00 | 0.00 | 68 | |
| 20260905221101 | 27 | 74 | 1.6 | 1.6 | 0.00 | 0.00 | 0.00 | 68 | |
| 20260905220057 | 27 | 12 | 6.4 | 9.7 | 0.00 | 0.00 | 0.00 | 68 | |
| 20260905215057 | 26 | 150 | 0.0 | 0.0 | 0.00 | 0.00 | 0.00 | 69 | |
| 20260905214057 | 26 | 316 | 3.2 | 3.2 | 0.00 | 0.00 | 0.00 | 69 | |
| 20260905213058 | 26 | 113 | 1.6 | 1.6 | 0.00 | 0.00 | 0.00 | 69 | |
| 20260905212057 | 26 | 78 | 1.6 | 1.6 | 0.00 | 0.00 | 0.00 | 71 | |
| 20260905211055 | 26 | 116 | 1.6 | 3.2 | 0.00 | 0.00 | 0.00 | 71 | |
| 20260905210055 | 26 | 108 | 3.2 | 6.4 | 0.00 | 0.00 | 0.00 | 71 | |
| 20260905205053 | 26 | 119 | 1.6 | 1.6 | 0.00 | 0.00 | 0.00 | 73 | |
| 20260905204552 | 25 | 134 | 1.6 | 3.2 | 0.00 | 0.00 | 0.00 | 74 | |
| 20260905203550 | 25 | 103 | 1.6 | 3.2 | 0.00 | 0.00 | 0.00 | 73 | |
| 20260905202549 | 25 | 106 | 6.4 | 9.7 | 0.00 | 0.00 | 0.00 | 74 | |
| 20260905201549 | 25 | 93 | 0.0 | 0.0 | 0.00 | 0.00 | 0.00 | 74 | |
| 20260905200548 | 25 | 134 | 1.6 | 1.6 | 0.00 | 0.00 | 0.00 | 75 |